Hourly Weather Kitnowo

Today, 29 July, Thursday

Time Temperature Precipitation Wind Pressure Humidity
00:00 +19°C° 0.5 mm 2 mps 741 mmHg 95%
01:00 +19°C° 0 mm 2 mps 740 mmHg 95%
02:00 +18°C° 0.2 mm 2 mps 740 mmHg 95%
03:00 +18°C° 0.2 mm 2 mps 740 mmHg 96%
04:00 +17°C° 0.2 mm 2 mps 740 mmHg 96%
05:00 +18°C° 0 mm 3 mps 740 mmHg 91%
06:00 +19°C° 0 mm 3 mps 741 mmHg 86%
07:00 +20°C° 0 mm 4 mps 741 mmHg 81%
08:00 +22°C° 0 mm 4 mps 741 mmHg 72%
09:00 +23°C° 0 mm 4 mps 741 mmHg 64%
10:00 +25°C° 0 mm 4 mps 741 mmHg 56%
11:00 +26°C° 0 mm 5 mps 741 mmHg 54%
12:00 +26°C° 0 mm 5 mps 741 mmHg 52%
13:00 +26°C° 0 mm 5 mps 741 mmHg 51%
14:00 +26°C° 0 mm 5 mps 740 mmHg 52%
15:00 +25°C° 0 mm 4 mps 740 mmHg 53%
16:00 +25°C° 0 mm 4 mps 740 mmHg 54%
17:00 +23°C° 0 mm 4 mps 740 mmHg 56%
18:00 +22°C° 0 mm 3 mps 740 mmHg 59%
19:00 +21°C° 0 mm 2 mps 740 mmHg 61%
20:00 +20°C° 0 mm 3 mps 740 mmHg 63%
21:00 +19°C° 0 mm 3 mps 741 mmHg 64%
22:00 +18°C° 0 mm 3 mps 741 mmHg 65%
23:00 +17°C° 0 mm 3 mps 741 mmHg 69%

Tomorrow, 30 July, Friday

Time Temperature Precipitation Wind Pressure Humidity
00:00 +16°C° 0 mm 3 mps 741 mmHg 73%
01:00 +14°C° 0 mm 3 mps 741 mmHg 76%
02:00 +14°C° 0 mm 3 mps 741 mmHg 78%
03:00 +13°C° 0 mm 3 mps 741 mmHg 80%
04:00 +13°C° 0 mm 3 mps 741 mmHg 82%
05:00 +14°C° 0 mm 3 mps 741 mmHg 75%
06:00 +17°C° 0 mm 4 mps 741 mmHg 69%
07:00 +18°C° 0 mm 4 mps 741 mmHg 63%
08:00 +19°C° 0 mm 5 mps 740 mmHg 57%
09:00 +21°C° 0 mm 6 mps 740 mmHg 52%
10:00 +22°C° 0 mm 7 mps 740 mmHg 46%
11:00 +22°C° 0 mm 7 mps 740 mmHg 44%
12:00 +23°C° 0 mm 7 mps 740 mmHg 42%
13:00 +24°C° 0 mm 7 mps 740 mmHg 39%
14:00 +24°C° 0 mm 6 mps 739 mmHg 41%
15:00 +24°C° 0 mm 6 mps 739 mmHg 42%
16:00 +26°C° 0 mm 5 mps 739 mmHg 44%
17:00 +23°C° 0 mm 5 mps 738 mmHg 49%
18:00 +21°C° 0 mm 4 mps 738 mmHg 54%
19:00 +20°C° 0 mm 3 mps 738 mmHg 59%
20:00 +19°C° 0 mm 3 mps 738 mmHg 60%
21:00 +18°C° 0 mm 3 mps 739 mmHg 62%
22:00 +17°C° 0 mm 2 mps 739 mmHg 63%
23:00 +16°C° 0 mm 2 mps 739 mmHg 65%

Day after tomorrow, 31 July, Saturday

Time Temperature Precipitation Wind Pressure Humidity
00:00 +16°C° 0 mm 2 mps 739 mmHg 68%
01:00 +15°C° 0 mm 2 mps 739 mmHg 70%
02:00 +15°C° 0 mm 2 mps 739 mmHg 71%
03:00 +15°C° 0 mm 2 mps 739 mmHg 73%
04:00 +14°C° 0 mm 2 mps 739 mmHg 74%
05:00 +16°C° 0 mm 2 mps 739 mmHg 70%
06:00 +18°C° 0 mm 3 mps 739 mmHg 66%
07:00 +19°C° 0 mm 3 mps 739 mmHg 62%
08:00 +21°C° 0 mm 3 mps 739 mmHg 58%
09:00 +24°C° 0 mm 3 mps 739 mmHg 54%
10:00 +25°C° 0 mm 3 mps 739 mmHg 50%
11:00 +25°C° 0 mm 4 mps 739 mmHg 51%
12:00 +25°C° 0 mm 4 mps 739 mmHg 52%
13:00 +25°C° 0 mm 4 mps 738 mmHg 53%
14:00 +25°C° 0 mm 4 mps 738 mmHg 56%
15:00 +25°C° 0 mm 5 mps 738 mmHg 58%
16:00 +25°C° 0 mm 5 mps 738 mmHg 61%
17:00 +23°C° 0.2 mm 4 mps 737 mmHg 67%
18:00 +22°C° 0.2 mm 4 mps 737 mmHg 73%
19:00 +20°C° 0.2 mm 3 mps 737 mmHg 79%
20:00 +20°C° 0 mm 3 mps 737 mmHg 81%
21:00 +19°C° 0 mm 3 mps 737 mmHg 82%
22:00 +18°C° 0 mm 3 mps 738 mmHg 83%
23:00 +17°C° 0 mm 3 mps 738 mmHg 82%

1 August, Sunday

Time Temperature Precipitation Wind Pressure Humidity
00:00 +16°C° 0 mm 3 mps 738 mmHg 81%
01:00 +14°C° 0 mm 3 mps 738 mmHg 80%
02:00 +14°C° 0 mm 3 mps 738 mmHg 80%
03:00 +13°C° 0 mm 3 mps 738 mmHg 81%
04:00 +13°C° 0 mm 3 mps 738 mmHg 81%
05:00 +14°C° 0 mm 4 mps 738 mmHg 77%
06:00 +17°C° 0 mm 4 mps 739 mmHg 73%
07:00 +18°C° 0 mm 4 mps 739 mmHg 70%
08:00 +19°C° 0 mm 4 mps 739 mmHg 64%
09:00 +21°C° 0 mm 4 mps 739 mmHg 58%
10:00 +22°C° 0 mm 4 mps 739 mmHg 53%
11:00 +22°C° 0 mm 4 mps 739 mmHg 55%
12:00 +21°C° 0 mm 4 mps 740 mmHg 58%
13:00 +21°C° 0 mm 5 mps 740 mmHg 61%
14:00 +20°C° 0.4 mm 4 mps 740 mmHg 70%
15:00 +18°C° 0.4 mm 3 mps 740 mmHg 79%
16:00 +17°C° 0.4 mm 2 mps 740 mmHg 89%
17:00 +17°C° 0.1 mm 2 mps 740 mmHg 89%
18:00 +17°C° 0.1 mm 2 mps 739 mmHg 89%
19:00 +17°C° 0.1 mm 2 mps 739 mmHg 90%
20:00 +16°C° 0 mm 2 mps 739 mmHg 91%
21:00 +15°C° 0 mm 2 mps 740 mmHg 92%
22:00 +15°C° 0 mm 2 mps 740 mmHg 94%
23:00 +14°C° 0 mm 2 mps 740 mmHg 94%

2 August, Monday

Time Temperature Precipitation Wind Pressure Humidity
00:00 +14°C° 0 mm 1 mps 740 mmHg 94%
01:00 +14°C° 0 mm 1 mps 740 mmHg 94%
02:00 +14°C° 0 mm 2 mps 740 mmHg 92%
03:00 +14°C° 0 mm 2 mps 740 mmHg 91%
04:00 +14°C° 0 mm 2 mps 740 mmHg 90%
05:00 +15°C° 0 mm 2 mps 740 mmHg 85%
06:00 +16°C° 0 mm 3 mps 740 mmHg 80%
07:00 +17°C° 0 mm 3 mps 740 mmHg 75%
08:00 +18°C° 0 mm 4 mps 741 mmHg 67%
09:00 +20°C° 0 mm 4 mps 741 mmHg 59%
10:00 +21°C° 0 mm 5 mps 741 mmHg 50%
11:00 +21°C° 0 mm 5 mps 741 mmHg 50%
12:00 +21°C° 0 mm 5 mps 741 mmHg 49%
13:00 +22°C° 0 mm 4 mps 741 mmHg 49%
14:00 +21°C° 0 mm 4 mps 741 mmHg 50%
15:00 +21°C° 0 mm 4 mps 741 mmHg 51%
16:00 +21°C° 0 mm 3 mps 742 mmHg 52%
17:00 +20°C° 0 mm 3 mps 742 mmHg 58%
18:00 +19°C° 0 mm 2 mps 742 mmHg 64%
19:00 +18°C° 0 mm 2 mps 742 mmHg 70%
20:00 +17°C° 0.1 mm 2 mps 742 mmHg 74%
21:00 +16°C° 0.1 mm 1 mps 742 mmHg 78%
22:00 +15°C° 0.1 mm 1 mps 743 mmHg 83%
23:00 +15°C° 0.1 mm 1 mps 743 mmHg 85%

3 August, Tuesday

Time Temperature Precipitation Wind Pressure Humidity
00:00 +15°C° 0.1 mm 1 mps 743 mmHg 87%
01:00 +14°C° 0.1 mm 1 mps 743 mmHg 90%
02:00 +14°C° 0.1 mm 1 mps 743 mmHg 91%
03:00 +13°C° 0.1 mm 1 mps 743 mmHg 92%
04:00 +13°C° 0.1 mm 2 mps 743 mmHg 93%
05:00 +14°C° 0 mm 2 mps 743 mmHg 89%
06:00 +16°C° 0 mm 2 mps 743 mmHg 85%
07:00 +17°C° 0 mm 2 mps 743 mmHg 81%
08:00 +19°C° 0.1 mm 2 mps 744 mmHg 74%
09:00 +20°C° 0.1 mm 3 mps 744 mmHg 67%
10:00 +21°C° 0.1 mm 3 mps 744 mmHg 60%
11:00 +22°C° 0.1 mm 3 mps 744 mmHg 55%
12:00 +24°C° 0.1 mm 3 mps 744 mmHg 49%
13:00 +25°C° 0.1 mm 4 mps 744 mmHg 44%
14:00 +24°C° 0 mm 3 mps 744 mmHg 49%
15:00 +23°C° 0 mm 2 mps 744 mmHg 54%
16:00 +22°C° 0 mm 1 mps 744 mmHg 60%
17:00 +21°C° 0 mm 1 mps 744 mmHg 62%
18:00 +21°C° 0 mm 1 mps 744 mmHg 64%
19:00 +20°C° 0 mm 1 mps 743 mmHg 67%
20:00 +19°C° 0.4 mm 1 mps 744 mmHg 75%
21:00 +16°C° 0.4 mm 1 mps 744 mmHg 83%
22:00 +15°C° 0.4 mm 1 mps 744 mmHg 91%
23:00 +14°C° 0 mm 1 mps 744 mmHg 91%
Show more